Glenwillard, PA (15046)

9:45 AM EDT on August 25, 2016 (GMT -0400)
Quaker Heights | | Change Station

Elev 1138 ft 40.57 °N, 80.21 °W | Updated 8 minutes ago

Mostly Cloudy
Mostly Cloudy
74.8 °F
Feels Like 74 °F
N
0.0
Wind Variable Wind from South

Today
High -- | Low -- °F
--% Chance of Precip.
Yesterday
High -- | Low -- °F
Precip. -- in
Pressure 30.09 in
Visibility 10.0 miles
Clouds Mostly Cloudy 1000 ft
Mostly Cloudy 1600 ft
Mostly Cloudy 3100 ft
Mostly Cloudy 22000 ft
Heat Index 74 °F
Dew Point 71 °F
Humidity 87%
Rainfall 0.24 in
Snow Depth Not available.
6:41 AM 8:03 PM
Last Quarter, 45% visible
SPECI KPIT 251338Z 25007KT 10SM BKN010 BKN016 BKN031 BKN220 24/21 A3009 RMK AO2 T02390211
Pressure 30.09 in
Visibility 10.0 miles
Clouds Mostly Cloudy 1000 ft
Mostly Cloudy 1600 ft
Mostly Cloudy 3100 ft
Mostly Cloudy 22000 ft
Heat Index 74 °F
Dew Point 71 °F
Humidity 87%
Rainfall 0.24 in
Snow Depth Not available.
6:41 AM 8:03 PM
Last Quarter, 45% visible
SPECI KPIT 251338Z 25007KT 10SM BKN010 BKN016 BKN031 BKN220 24/21 A3009 RMK AO2 T02390211

10-Day Weather Forecast

Almanac

Astronomy

Aug. 25, 2016 Rise Set
Actual Time
Civil Twilight
Nautical Twilight
Astronomical Twilight
Moon
Length of Visible Light
Length of Day
Tomorrow will be .
, % of the Moon is Illuminated

Today's Extremes

State Highs State Lows

Community

WunderPhotos

Upload Photos

1,934,847 photos uploaded!

WunderBlog® & News

Nearby

Air Quality

  Air Quality AQ Index Pollutant
Not available.

Snow Depth

Station Depth Elevation

Earthquake Activity

City Distance Mag. Time & Date
Minimum magnitude displayed is 2.5.

Coastal Water Temperatures

Place Temperature

Stations

Nearby Weather Stations

Station Location Temp. Windchill Dew Point Humidity Wind Precip. Elev Updated Type
                   

Watches & Warnings

There are currently no watches in effect.